Regional Weather Roundup
Issued by NWS Goodland, KS

Home | Current Version | Previous Version | Text Only | Print | Product List | Glossary On
Versions: 1 2 3 4 5 6 7 8 9 10 11 12 13 14 15 16 17 18 19 20 21 22 23 24 25 26 27 28 29 30 31 32 33 34 35 36 37 38 39 40 41 42 43 44 45 46 47 48 49 50
000
ASUS43 KGLD 292008
RWRGLD

GOODLAND FORECAST AREA HOURLY WEATHER ROUNDUP
NATIONAL WEATHER SERVICE GOODLAND KS
200 PM MDT TUE JUL 29 2014

...OFFICIAL OBSERVATIONS...

CITY           SKY/WX    TMP DP  RH WIND       PRES   REMARKS
GOODLAND KS    MOSUNNY   86  60  41 SE14G22   30.15F
HILL CITY KS   CLOUDY    85  58  39 VRB3      30.13F
IMPERIAL NEB   MOSUNNY   83  59  44 SE12      30.16F
MCCOOK NEB     MOSUNNY   84  59  42 E13G18    30.15F
AKRON CO       MOSUNNY   85  55  35 SE14G25   30.17F
BURLINGTON CO  PTSUNNY   83  60  45 SE17      30.16F
LIMON CO       TSTM      69  62  78 VRB5      30.20F
$$

...UNOFFICIAL OBSERVATIONS...

CITY           SKY/WX    TMP DP  RH WIND       PRES   REMARKS
COLBY KS       MOSUNNY   86  64  48 SE10G18   30.15F
GOVE KS          N/A     86  32  14 MISG        N/A
LENORA KS        N/A     83  32  16 MISG        N/A
NORTON KS      MOSUNNY   88  52  29 SE12G18   30.14F
OBERLIN KS     FAIR      88  55  33 E10G16    30.13F
ST FRANCIS KS  MOSUNNY   88  52  29 SE16G22   30.12F
TRIBUNE KS     MOSUNNY   81 N/A N/A SE13G20   30.17F
WAKEENEY KS      N/A     87  52  29 MISG        N/A
TRENTON NEB      N/A     84  32  15 NE14        N/A
KIT CARSON CO    N/A     83  62  49 N15         N/A
WRAY CO          N/A     90  55  31 SE13G24   30.14F
YUMA CO          N/A     84  53  34 E18         N/A
$$


USA.gov is the U.S. government's official web portal to all federal, state and local government web resources and services.